Weather History for Leuchars, United Kingdom

Change the Weather History Date:

Wednesday, February 13, 2013

  Actual Average Record
Temperature  
Mean Temperature 36 °F -  
Max Temperature 39 °F 45 °F 57 °F (1998)
Min Temperature 32 °F 34 °F 28 °F (2009)
Degree Days  
Heating Degree Days 30    
Moisture  
Dew Point 30 °F    
Average Humidity 83    
Maximum Humidity 95    
Minimum Humidity 51    
Precipitation  
Precipitation 0.35 in - - ()
Sea Level Pressure  
Sea Level Pressure 29.80 in    
Wind  
Wind Speed 8 mph ()    
Max Wind Speed 16 mph    
Max Gust Speed -    
Visibility 5.0 miles    
Events Rain , Snow    
Averages and records for this station are not official NWS values.
T = Trace of Precipitation, MM = Missing Value Source: Averaged Metar Reports

Daily Weather History Graph

Daily Weather History Graph

Search for Another Location

Airport:

Trip Planner

Search our weather history database for the weather conditions in past years. The results will help you decide how hot, cold, wet, or windy it might be!

Date:

Astronomy

Feb. 13, 2013 Rise Set
Actual Time 7:42 AM GMT 5:10 PM GMT
Civil Twilight 7:02 AM GMT 5:49 PM GMT
Nautical Twilight 6:18 AM GMT 6:33 PM GMT
Astronomical Twilight 5:35 AM GMT 7:17 PM GMT
Moon 8:15 AM GMT (2/13) 9:53 PM GMT (2/13)
Length of Visible Light 10h 46m
Length of Day
9h 27m
Waxing Crescent, 12% of the Moon is Illuminated
Feb 13
Waxing Crescent
Feb 17
First Quarter
Feb 25
Full
Mar 4
Last Quarter
Mar 11
New

Hourly Weather History & Observations

Time (GMT) Temp. Windchill Dew Point Humidity Pressure Visibility Wind Dir Wind Speed Gust Speed Precip Events Conditions
12:50 AM 35.6 °F 29.9 °F 28.4 °F 75% 30.06 in - SSE 6.9 mph - N/A   Clear
1:50 AM 35.6 °F 29.9 °F 28.4 °F 75% 30.06 in - SSE 6.9 mph - N/A   Clear
2:50 AM 35 °F - 26 °F 61% 30.06 in 9 mi SSW 10.4 mph - -   Mostly Cloudy
2:50 AM 35.6 °F 28.0 °F 26.6 °F 70% 30.04 in 6.2 mi SSW 10.4 mph - N/A   Mostly Cloudy
3:50 AM 35.6 °F 28.6 °F 24.8 °F 65% 30.04 in - South 9.2 mph - N/A   Clear
4:50 AM 35.6 °F 27.5 °F 23.0 °F 60% 30.04 in - South 11.5 mph - N/A   Clear
5:50 AM 35 °F - 23 °F 51% 30.01 in 16 mi South 16.1 mph - -   Overcast
5:50 AM 35.6 °F 25.9 °F 23.0 °F 60% 30.01 in - South 16.1 mph - N/A   Clear
6:50 AM 33.8 °F 24.3 °F 24.8 °F 70% 29.98 in 6.2 mi South 13.8 mph - N/A Snow Light Snow
7:50 AM 33.8 °F 24.8 °F 26.6 °F 75% 29.95 in 4.3 mi South 12.7 mph - N/A Snow Light Snow
8:50 AM 33 °F - 28 °F 74% 29.96 in 3 mi SSE 5.8 mph - - Snow Light Snow
8:50 AM 33.8 °F 28.6 °F 28.4 °F 81% 29.95 in 2.8 mi SSE 5.8 mph - N/A Snow Light Snow
9:12 AM 32.0 °F 26.4 °F 28.4 °F 87% 29.95 in 2.2 mi SSE 5.8 mph - N/A Snow Light Snow
9:50 AM 32.0 °F 26.4 °F 28.4 °F 87% 29.92 in 1.6 mi SSE 5.8 mph - N/A Snow Light Snow
10:19 AM 32.0 °F 23.6 °F 28.4 °F 87% 29.92 in 1.1 mi South 10.4 mph - N/A Snow Light Snow
10:50 AM 32.0 °F 24.8 °F 30.2 °F 93% 29.92 in 1.0 mi SSE 8.1 mph - N/A Snow Snow
11:50 AM 32 °F - 30 °F 89% 29.89 in 1 mi SSE 6.9 mph - - Snow Snow
11:50 AM 32.0 °F 25.6 °F 30.2 °F 93% 29.89 in 0.9 mi SSE 6.9 mph - N/A Snow Snow
12:50 PM 32.0 °F 25.6 °F 30.2 °F 93% 29.83 in 0.7 mi SSE 6.9 mph - N/A Snow Snow
1:15 PM 33.8 °F 28.6 °F 30.2 °F 87% 29.80 in 1.2 mi SE 5.8 mph - N/A Snow Snow
1:50 PM 33.8 °F 26.4 °F 30.2 °F 87% 29.80 in 1.1 mi SSE 9.2 mph - N/A Snow Snow
2:13 PM 33.8 °F 27.0 °F 30.2 °F 87% 29.77 in 1.7 mi SE 8.1 mph - N/A Snow Light Snow
2:50 PM 33 °F - 32 °F 95% 29.75 in 3 mi SE 6.9 mph - - Snow Light Snow
2:50 PM 33.8 °F 27.7 °F 32.0 °F 93% 29.74 in 5.0 mi SE 6.9 mph - N/A Snow Light Snow
3:20 PM 33.8 °F 27.0 °F 32.0 °F 93% 29.71 in 3.7 mi SE 8.1 mph - N/A Snow Snow Grains
3:50 PM 33.8 °F 27.7 °F 32.0 °F 93% 29.68 in 5.6 mi SSE 6.9 mph - N/A   Ice Pellets
4:50 PM 35.6 °F 27.5 °F 32.0 °F 87% 29.62 in 5.6 mi SSE 11.5 mph - N/A Rain , Snow Light Rain
5:50 PM 37 °F - 33 °F 82% 29.60 in 6 mi South 11.5 mph - - Rain Rain
5:50 PM 37.4 °F 29.8 °F 33.8 °F 87% 29.59 in 5.6 mi South 11.5 mph - N/A Rain Rain
6:50 PM 37.4 °F 29.8 °F 33.8 °F 87% 29.56 in 5.0 mi South 11.5 mph - N/A Rain Rain
7:50 PM 37.4 °F 30.3 °F 35.6 °F 93% 29.53 in 6.2 mi SSW 10.4 mph - N/A Rain Light Rain
8:50 PM 37 °F - 36 °F 93% 29.52 in 12 mi WSW 5.8 mph - - Rain Light Rain
8:50 PM 37.4 °F 32.8 °F 35.6 °F 93% 29.50 in 6.2 mi WSW 5.8 mph - N/A   Overcast
9:50 PM 39.2 °F 32.5 °F 37.4 °F 93% 29.50 in 6.2 mi SW 10.4 mph - N/A Rain Light Rain
10:50 PM 39.2 °F 33.6 °F 37.4 °F 93% 29.50 in 6.2 mi WSW 8.1 mph - N/A   Mostly Cloudy
11:50 PM 39 °F - 37 °F 91% 29.53 in 16 mi SW 9.2 mph - - Rain Light Rain Showers
11:50 PM 39.2 °F 33.0 °F 37.4 °F 93% 29.50 in 6.2 mi SW 9.2 mph - N/A   Mostly Cloudy